Volver al catálogo

STARLINK-36498

ActivoComunicacionesVLEO
NORAD 67318·PAYLOAD·🇺🇸 United States

Lanzado Jan 4, 2026 desde Cape Canaveral Space Force Station

Loading…

Próximos Pases (próximas 24 horas)

TLE

ActualizadoSource: CelesTrak SupGP

Época: Sep 14, 2026, 15:35 UTC

1 67318C 26002P   26257.64979167  .00038314  00000+0  13881-2 0  2574
2 67318  43.0023 338.2413 0001572 273.5403 191.3417 15.27549957    13

Sigue STARLINK-36498 en tiempo real con AllMySat

Download on the App Store